Time,TemperatureF,DewpointF,PressureIn,WindDirection,WindDirectionDegrees,WindSpeedMPH,WindSpeedGustMPH,Humidity,HourlyPrecipIn,Conditions,Clouds,dailyrainin,SoftwareType,DateUTC
2013-04-30 00:00:00,58.8,53.6,29.91,SE,125,2.0,2.0,83,0.00,,,0.00,Wunderground v.1.15,2013-04-30 04:00:00,
2013-04-30 00:01:00,58.8,53.6,29.91,SE,125,2.0,2.0,83,0.00,,,0.00,Wunderground v.1.15,2013-04-30 04:01:00,
2013-04-30 00:02:00,58.8,53.6,29.91,SE,125,2.0,2.0,83,0.00,,,0.00,Wunderground v.1.15,2013-04-30 04:02:00,
2013-04-30 00:03:00,58.8,53.6,29.91,SE,125,2.0,2.0,83,0.00,,,0.00,Wunderground v.1.15,2013-04-30 04:03:00,
2013-04-30 00:05:00,58.7,53.5,29.91,SE,125,2.0,2.0,83,0.00,,,0.00,Wunderground v.1.15,2013-04-30 04:05:00,
2013-04-30 00:10:00,58.7,53.5,29.91,SE,125,2.0,2.0,83,0.00,,,0.00,Wunderground v.1.15,2013-04-30 04:10:00,
2013-04-30 00:15:00,58.7,53.5,29.91,SE,125,1.0,2.0,83,0.00,,,0.00,Wunderground v.1.15,2013-04-30 04:15:00,
2013-04-30 00:20:00,58.6,53.5,29.91,SE,125,1.0,1.0,83,0.00,,,0.00,Wunderground v.1.15,2013-04-30 04:20:00,
2013-04-30 00:25:00,58.6,53.8,29.91,SE,125,1.0,1.0,84,0.00,,,0.00,Wunderground v.1.15,2013-04-30 04:25:00,
2013-04-30 00:31:00,58.4,53.6,29.91,SE,125,1.0,2.0,84,0.00,,,0.00,Wunderground v.1.15,2013-04-30 04:31:00,
2013-04-30 00:36:00,58.3,53.5,29.91,SE,125,2.0,3.0,84,0.00,,,0.00,Wunderground v.1.15,2013-04-30 04:36:00,
2013-04-30 00:41:00,58.2,53.7,29.91,SE,125,2.0,2.0,85,0.00,,,0.00,Wunderground v.1.15,2013-04-30 04:41:00,
2013-04-30 00:47:00,58.1,53.6,29.91,SE,125,2.0,2.0,85,0.00,,,0.00,Wunderground v.1.15,2013-04-30 04:47:00,
2013-04-30 00:52:00,58.1,53.6,29.92,SE,125,2.0,2.0,85,0.00,,,0.00,Wunderground v.1.15,2013-04-30 04:52:00,
2013-04-30 00:57:00,58.0,53.8,29.92,SE,125,1.0,2.0,86,0.00,,,0.00,Wunderground v.1.15,2013-04-30 04:57:00,
2013-04-30 01:03:00,58.0,53.8,29.92,SE,125,1.0,1.0,86,0.00,,,0.00,Wunderground v.1.15,2013-04-30 05:03:00,
2013-04-30 01:08:00,57.9,53.7,29.92,SE,125,1.0,4.0,86,0.00,,,0.00,Wunderground v.1.15,2013-04-30 05:08:00,
2013-04-30 01:13:00,57.9,53.7,29.92,SE,125,2.0,4.0,86,0.00,,,0.00,Wunderground v.1.15,2013-04-30 05:13:00,
2013-04-30 01:19:00,57.9,53.7,29.92,SE,125,3.0,4.0,86,0.00,,,0.00,Wunderground v.1.15,2013-04-30 05:19:00,
2013-04-30 01:24:00,58.0,53.8,29.92,SE,125,3.0,5.0,86,0.00,,,0.00,Wunderground v.1.15,2013-04-30 05:24:00,
2013-04-30 01:29:00,58.0,53.8,29.92,SE,125,1.0,5.0,86,0.00,,,0.00,Wunderground v.1.15,2013-04-30 05:29:00,
2013-04-30 01:34:00,58.0,53.8,29.92,SE,125,2.0,4.0,86,0.00,,,0.00,Wunderground v.1.15,2013-04-30 05:34:00,
2013-04-30 01:40:00,58.1,54.2,29.92,SE,126,3.0,5.0,87,0.00,,,0.00,Wunderground v.1.15,2013-04-30 05:40:00,
2013-04-30 01:45:00,58.2,54.3,29.92,SE,126,2.0,4.0,87,0.00,,,0.00,Wunderground v.1.15,2013-04-30 05:45:00,
2013-04-30 01:50:00,58.3,54.4,29.92,SE,126,1.0,4.0,87,0.00,,,0.00,Wunderground v.1.15,2013-04-30 05:50:00,
2013-04-30 01:55:00,58.3,54.4,29.93,SE,126,1.0,4.0,87,0.00,,,0.00,Wunderground v.1.15,2013-04-30 05:55:00,
2013-04-30 02:00:00,58.3,54.4,29.93,SE,126,1.0,1.0,87,0.00,,,0.00,Wunderground v.1.15,2013-04-30 06:00:00,
2013-04-30 02:06:00,58.2,54.3,29.93,SE,126,1.0,1.0,87,0.00,,,0.00,Wunderground v.1.15,2013-04-30 06:06:00,
2013-04-30 02:12:00,58.2,54.7,29.93,SE,126,0.0,1.0,88,0.00,,,0.00,Wunderground v.1.15,2013-04-30 06:12:00,
2013-04-30 02:17:00,58.0,54.5,29.92,SE,126,0.0,1.0,88,0.00,,,0.00,Wunderground v.1.15,2013-04-30 06:17:00,
2013-04-30 02:22:00,58.0,54.5,29.93,SE,126,1.0,3.0,88,0.00,,,0.00,Wunderground v.1.15,2013-04-30 06:22:00,
2013-04-30 02:27:00,58.0,54.5,29.93,SE,126,1.0,3.0,88,0.00,,,0.00,Wunderground v.1.15,2013-04-30 06:27:00,
2013-04-30 02:33:00,58.0,54.5,29.93,SE,126,1.0,2.0,88,0.00,,,0.00,Wunderground v.1.15,2013-04-30 06:33:00,
2013-04-30 02:38:00,57.9,54.4,29.93,SE,126,0.0,2.0,88,0.00,,,0.00,Wunderground v.1.15,2013-04-30 06:38:00,
2013-04-30 02:43:00,57.8,54.3,29.93,SE,126,0.0,1.0,88,0.00,,,0.00,Wunderground v.1.15,2013-04-30 06:43:00,
2013-04-30 02:49:00,57.7,54.2,29.93,SE,126,0.0,2.0,88,0.00,,,0.00,Wunderground v.1.15,2013-04-30 06:49:00,
2013-04-30 02:54:00,57.5,54.3,29.93,SE,126,1.0,3.0,89,0.00,,,0.00,Wunderground v.1.15,2013-04-30 06:54:00,
2013-04-30 02:59:00,57.4,54.2,29.93,SE,126,1.0,3.0,89,0.00,,,0.00,Wunderground v.1.15,2013-04-30 06:59:00,
2013-04-30 03:05:00,57.2,54.3,29.93,SE,126,0.0,1.0,90,0.00,,,0.00,Wunderground v.1.15,2013-04-30 07:05:00,
2013-04-30 03:10:00,57.1,54.2,29.93,SE,126,0.0,1.0,90,0.00,,,0.00,Wunderground v.1.15,2013-04-30 07:10:00,
2013-04-30 03:15:00,57.0,54.1,29.93,SE,126,1.0,2.0,90,0.00,,,0.00,Wunderground v.1.15,2013-04-30 07:15:00,
2013-04-30 03:20:00,56.9,54.0,29.93,SE,126,2.0,3.0,90,0.00,,,0.00,Wunderground v.1.15,2013-04-30 07:20:00,
2013-04-30 03:26:00,56.9,54.0,29.93,SE,126,2.0,4.0,90,0.00,,,0.00,Wunderground v.1.15,2013-04-30 07:26:00,
2013-04-30 03:31:00,57.0,54.1,29.93,SE,126,2.0,2.0,90,0.00,,,0.00,Wunderground v.1.15,2013-04-30 07:31:00,
2013-04-30 03:36:00,57.0,54.1,29.93,SE,126,2.0,2.0,90,0.00,,,0.00,Wunderground v.1.15,2013-04-30 07:36:00,
2013-04-30 03:41:00,56.9,54.0,29.93,SE,126,1.0,4.0,90,0.00,,,0.00,Wunderground v.1.15,2013-04-30 07:41:00,
2013-04-30 03:47:00,56.8,53.9,29.94,SE,126,1.0,4.0,90,0.00,,,0.00,Wunderground v.1.15,2013-04-30 07:47:00,
2013-04-30 03:53:00,56.8,54.2,29.94,SE,126,1.0,1.0,91,0.00,,,0.00,Wunderground v.1.15,2013-04-30 07:53:00,
2013-04-30 03:58:00,56.7,54.1,29.94,SE,126,1.0,1.0,91,0.00,,,0.00,Wunderground v.1.15,2013-04-30 07:58:00,
2013-04-30 04:03:00,56.7,54.1,29.95,SE,126,1.0,1.0,91,0.00,,,0.00,Wunderground v.1.15,2013-04-30 08:03:00,
2013-04-30 04:09:00,56.7,54.1,29.95,SE,126,0.0,1.0,91,0.00,,,0.00,Wunderground v.1.15,2013-04-30 08:09:00,
2013-04-30 04:14:00,56.7,54.1,29.95,SE,126,0.0,2.0,91,0.00,,,0.00,Wunderground v.1.15,2013-04-30 08:14:00,
2013-04-30 04:19:00,56.5,53.9,29.95,SE,126,0.0,2.0,91,0.00,,,0.00,Wunderground v.1.15,2013-04-30 08:19:00,
2013-04-30 04:24:00,56.4,53.8,29.95,SE,126,0.0,0.0,91,0.00,,,0.00,Wunderground v.1.15,2013-04-30 08:24:00,
2013-04-30 04:30:00,56.2,53.9,29.95,SE,126,0.0,1.0,92,0.00,,,0.00,Wunderground v.1.15,2013-04-30 08:30:00,
2013-04-30 04:36:00,56.0,53.7,29.95,SE,126,1.0,1.0,92,0.00,,,0.00,Wunderground v.1.15,2013-04-30 08:36:00,
2013-04-30 04:42:00,55.6,53.3,29.95,SE,126,1.0,2.0,92,0.00,,,0.00,Wunderground v.1.15,2013-04-30 08:42:00,
2013-04-30 04:47:00,55.5,53.2,29.95,SE,126,1.0,2.0,92,0.00,,,0.00,Wunderground v.1.15,2013-04-30 08:47:00,
2013-04-30 04:52:00,55.4,53.4,29.95,SE,126,1.0,1.0,93,0.00,,,0.00,Wunderground v.1.15,2013-04-30 08:52:00,
2013-04-30 04:58:00,55.3,53.3,29.95,SE,126,2.0,2.0,93,0.00,,,0.00,Wunderground v.1.15,2013-04-30 08:58:00,
2013-04-30 05:03:00,55.3,53.3,29.95,SE,126,2.0,2.0,93,0.00,,,0.00,Wunderground v.1.15,2013-04-30 09:03:00,
2013-04-30 05:08:00,55.3,53.3,29.95,SE,126,2.0,2.0,93,0.00,,,0.00,Wunderground v.1.15,2013-04-30 09:08:00,
2013-04-30 05:14:00,55.1,53.1,29.95,SE,126,1.0,2.0,93,0.00,,,0.00,Wunderground v.1.15,2013-04-30 09:14:00,
2013-04-30 05:19:00,55.0,53.0,29.95,SE,126,1.0,2.0,93,0.00,,,0.00,Wunderground v.1.15,2013-04-30 09:19:00,
2013-04-30 05:24:00,55.0,53.0,29.95,SE,126,1.0,1.0,93,0.00,,,0.00,Wunderground v.1.15,2013-04-30 09:24:00,
2013-04-30 05:30:00,54.8,53.1,29.95,SE,126,1.0,2.0,94,0.00,,,0.00,Wunderground v.1.15,2013-04-30 09:30:00,
2013-04-30 05:35:00,54.6,52.9,29.95,SE,126,2.0,3.0,94,0.00,,,0.00,Wunderground v.1.15,2013-04-30 09:35:00,
2013-04-30 05:40:00,54.6,52.9,29.94,SE,126,3.0,3.0,94,0.00,,,0.00,Wunderground v.1.15,2013-04-30 09:40:00,
2013-04-30 05:45:00,54.6,52.9,29.95,SE,126,3.0,4.0,94,0.00,,,0.00,Wunderground v.1.15,2013-04-30 09:45:00,
2013-04-30 05:51:00,54.6,52.9,29.95,SE,126,2.0,3.0,94,0.00,,,0.00,Wunderground v.1.15,2013-04-30 09:51:00,
2013-04-30 05:56:00,54.6,52.9,29.94,SE,126,2.0,4.0,94,0.00,,,0.00,Wunderground v.1.15,2013-04-30 09:56:00,
2013-04-30 06:02:00,54.6,52.9,29.94,SE,126,3.0,3.0,94,0.00,,,0.00,Wunderground v.1.15,2013-04-30 10:02:00,
2013-04-30 06:07:00,54.6,53.2,29.94,SE,126,2.0,4.0,95,0.00,,,0.00,Wunderground v.1.15,2013-04-30 10:07:00,
2013-04-30 06:12:00,54.5,53.1,29.94,SE,126,2.0,2.0,95,0.00,,,0.00,Wunderground v.1.15,2013-04-30 10:12:00,
2013-04-30 06:18:00,54.4,53.0,29.94,SE,126,2.0,4.0,95,0.00,,,0.00,Wunderground v.1.15,2013-04-30 10:18:00,
2013-04-30 06:23:00,54.3,52.9,29.94,SE,126,2.0,3.0,95,0.00,,,0.00,Wunderground v.1.15,2013-04-30 10:23:00,
2013-04-30 06:28:00,54.2,52.8,29.94,SE,126,3.0,4.0,95,0.00,,,0.00,Wunderground v.1.15,2013-04-30 10:28:00,
2013-04-30 06:33:00,54.2,52.8,29.94,SE,126,2.0,3.0,95,0.00,,,0.00,Wunderground v.1.15,2013-04-30 10:33:00,
2013-04-30 06:38:00,54.2,52.8,29.94,SE,126,2.0,3.0,95,0.00,,,0.00,Wunderground v.1.15,2013-04-30 10:38:00,
2013-04-30 06:44:00,54.2,52.8,29.95,SE,126,2.0,4.0,95,0.00,,,0.00,Wunderground v.1.15,2013-04-30 10:44:00,
2013-04-30 06:50:00,54.2,52.8,29.95,SE,126,2.0,4.0,95,0.00,,,0.00,Wunderground v.1.15,2013-04-30 10:50:00,
2013-04-30 06:55:00,54.2,52.8,29.95,SE,126,2.0,4.0,95,0.00,,,0.00,Wunderground v.1.15,2013-04-30 10:55:00,
2013-04-30 07:00:00,54.3,52.9,29.95,SE,126,2.0,3.0,95,0.00,,,0.00,Wunderground v.1.15,2013-04-30 11:00:00,
2013-04-30 07:06:00,54.3,52.9,29.94,SE,126,2.0,3.0,95,0.00,,,0.00,Wunderground v.1.15,2013-04-30 11:06:00,
2013-04-30 07:11:00,54.3,52.9,29.95,SE,126,2.0,3.0,95,0.00,,,0.00,Wunderground v.1.15,2013-04-30 11:11:00,
2013-04-30 07:16:00,54.4,53.0,29.96,SE,126,2.0,5.0,95,0.00,,,0.00,Wunderground v.1.15,2013-04-30 11:16:00,
2013-04-30 07:22:00,54.4,53.0,29.97,SE,126,2.0,3.0,95,0.00,,,0.00,Wunderground v.1.15,2013-04-30 11:22:00,
2013-04-30 07:27:00,54.6,53.2,29.97,SE,126,2.0,4.0,95,0.00,,,0.00,Wunderground v.1.15,2013-04-30 11:27:00,
2013-04-30 07:32:00,54.8,53.4,29.98,SE,126,2.0,4.0,95,0.00,,,0.00,Wunderground v.1.15,2013-04-30 11:32:00,
2013-04-30 07:38:00,55.1,53.7,29.98,SE,126,2.0,4.0,95,0.00,,,0.00,Wunderground v.1.15,2013-04-30 11:38:00,
2013-04-30 07:43:00,55.5,53.8,29.99,SE,126,3.0,4.0,94,0.00,,,0.00,Wunderground v.1.15,2013-04-30 11:43:00,
2013-04-30 07:48:00,55.8,54.1,29.98,SE,133,3.0,5.0,94,0.00,,,0.00,Wunderground v.1.15,2013-04-30 11:48:00,
2013-04-30 07:54:00,56.1,54.1,29.98,SE,145,3.0,5.0,93,0.00,,,0.00,Wunderground v.1.15,2013-04-30 11:54:00,
2013-04-30 07:59:00,56.3,54.3,29.98,South,173,4.0,6.0,93,0.00,,,0.00,Wunderground v.1.15,2013-04-30 11:59:00,
2013-04-30 08:04:00,56.6,54.3,29.97,South,188,4.0,5.0,92,0.00,,,0.00,Wunderground v.1.15,2013-04-30 12:04:00,
2013-04-30 08:09:00,57.0,54.7,29.98,South,186,4.0,7.0,92,0.00,,,0.00,Wunderground v.1.15,2013-04-30 12:09:00,
2013-04-30 08:15:00,57.4,54.5,29.98,South,185,5.0,7.0,90,0.00,,,0.00,Wunderground v.1.15,2013-04-30 12:15:00,
2013-04-30 08:20:00,57.8,54.9,29.98,South,169,5.0,9.0,90,0.00,,,0.00,Wunderground v.1.15,2013-04-30 12:20:00,
2013-04-30 08:25:00,58.0,54.8,29.99,South,184,6.0,10.0,89,0.00,,,0.00,Wunderground v.1.15,2013-04-30 12:25:00,
2013-04-30 08:31:00,58.2,54.7,29.99,South,173,7.0,10.0,88,0.00,,,0.00,Wunderground v.1.15,2013-04-30 12:31:00,
2013-04-30 08:36:00,58.5,54.6,30.00,SSW,205,7.0,10.0,87,0.00,,,0.00,Wunderground v.1.15,2013-04-30 12:36:00,
2013-04-30 08:42:00,58.9,54.7,30.00,SSW,209,7.0,8.0,86,0.00,,,0.00,Wunderground v.1.15,2013-04-30 12:42:00,
2013-04-30 08:47:00,59.1,54.9,29.99,SSE,155,6.0,9.0,86,0.00,,,0.00,Wunderground v.1.15,2013-04-30 12:47:00,
2013-04-30 08:52:00,59.3,54.8,30.00,SSW,202,7.0,11.0,85,0.00,,,0.00,Wunderground v.1.15,2013-04-30 12:52:00,
2013-04-30 08:58:00,59.6,55.1,30.00,SSW,202,8.0,11.0,85,0.00,,,0.00,Wunderground v.1.15,2013-04-30 12:58:00,
2013-04-30 09:03:00,59.9,55.1,30.00,SSW,209,9.0,9.0,84,0.00,,,0.00,Wunderground v.1.15,2013-04-30 13:03:00,
2013-04-30 09:09:00,60.4,55.2,30.01,South,180,8.0,12.0,83,0.00,,,0.00,Wunderground v.1.15,2013-04-30 13:09:00,
2013-04-30 09:14:00,60.8,55.3,30.00,SW,215,8.0,9.0,82,0.00,,,0.00,Wunderground v.1.15,2013-04-30 13:14:00,
2013-04-30 09:19:00,61.1,55.2,30.00,SSW,209,8.0,11.0,81,0.00,,,0.00,Wunderground v.1.15,2013-04-30 13:19:00,
2013-04-30 09:25:00,61.7,55.5,30.01,SSE,157,8.0,13.0,80,0.00,,,0.00,Wunderground v.1.15,2013-04-30 13:25:00,
2013-04-30 09:30:00,62.4,55.4,30.01,SSW,203,7.0,7.0,78,0.00,,,0.00,Wunderground v.1.15,2013-04-30 13:30:00,
2013-04-30 09:36:00,62.4,55.4,30.02,SW,225,6.0,8.0,78,0.00,,,0.00,Wunderground v.1.15,2013-04-30 13:36:00,
2013-04-30 09:41:00,62.4,55.4,30.02,SSW,205,7.0,10.0,78,0.00,,,0.00,Wunderground v.1.15,2013-04-30 13:41:00,
2013-04-30 09:47:00,62.2,54.9,30.02,SSW,194,7.0,10.0,77,0.00,,,0.00,Wunderground v.1.15,2013-04-30 13:47:00,
2013-04-30 09:52:00,62.3,55.4,30.01,SSW,202,6.0,7.0,78,0.00,,,0.00,Wunderground v.1.15,2013-04-30 13:52:00,
2013-04-30 09:58:00,62.4,55.1,30.01,South,182,6.0,11.0,77,0.00,,,0.00,Wunderground v.1.15,2013-04-30 13:58:00,
2013-04-30 10:03:00,63.1,55.4,30.01,SSW,205,6.0,10.0,76,0.00,,,0.00,Wunderground v.1.15,2013-04-30 14:03:00,
2013-04-30 10:08:00,62.8,54.8,30.01,South,186,7.0,13.0,75,0.00,,,0.00,Wunderground v.1.15,2013-04-30 14:08:00,
2013-04-30 10:14:00,62.9,54.9,30.01,SSW,200,8.0,12.0,75,0.00,,,0.00,Wunderground v.1.15,2013-04-30 14:14:00,
2013-04-30 10:19:00,62.8,54.8,30.01,SSW,193,9.0,12.0,75,0.00,,,0.00,Wunderground v.1.15,2013-04-30 14:19:00,
2013-04-30 10:24:00,62.9,54.9,30.01,SSW,202,8.0,10.0,75,0.00,,,0.00,Wunderground v.1.15,2013-04-30 14:24:00,
2013-04-30 10:30:00,62.8,54.4,30.02,SSW,193,8.0,8.0,74,0.00,,,0.00,Wunderground v.1.15,2013-04-30 14:30:00,
2013-04-30 10:36:00,62.9,54.9,30.02,SSE,158,8.0,9.0,75,0.00,,,0.00,Wunderground v.1.15,2013-04-30 14:36:00,
2013-04-30 10:42:00,62.9,54.5,30.02,South,186,7.0,7.0,74,0.00,,,0.00,Wunderground v.1.15,2013-04-30 14:42:00,
2013-04-30 10:47:00,63.0,54.6,30.02,SSE,166,7.0,7.0,74,0.00,,,0.00,Wunderground v.1.15,2013-04-30 14:47:00,
2013-04-30 10:53:00,63.0,54.6,30.02,South,170,6.0,8.0,74,0.00,,,0.00,Wunderground v.1.15,2013-04-30 14:53:00,
2013-04-30 10:59:00,63.1,54.3,30.02,SSW,202,6.0,8.0,73,0.00,,,0.00,Wunderground v.1.15,2013-04-30 14:59:00,
2013-04-30 11:04:00,63.1,54.3,30.02,South,175,7.0,9.0,73,0.00,,,0.00,Wunderground v.1.15,2013-04-30 15:04:00,
2013-04-30 11:10:00,63.2,54.4,30.02,SE,146,6.0,6.0,73,0.00,,,0.00,Wunderground v.1.15,2013-04-30 15:10:00,
2013-04-30 11:15:00,63.4,54.2,30.01,SE,140,5.0,8.0,72,0.00,,,0.00,Wunderground v.1.15,2013-04-30 15:15:00,
2013-04-30 11:20:00,63.4,53.8,30.02,SSE,159,6.0,6.0,71,0.00,,,0.00,Wunderground v.1.15,2013-04-30 15:20:00,
2013-04-30 11:26:00,63.4,54.2,30.03,SSE,165,7.0,10.0,72,0.00,,,0.00,Wunderground v.1.15,2013-04-30 15:26:00,
2013-04-30 11:31:00,63.5,54.3,30.04,SE,146,6.0,6.0,72,0.00,,,0.00,Wunderground v.1.15,2013-04-30 15:31:00,
2013-04-30 11:37:00,63.5,54.3,30.05,SSW,192,5.0,8.0,72,0.00,,,0.00,Wunderground v.1.15,2013-04-30 15:37:00,
2013-04-30 11:42:00,63.4,54.6,30.05,SSW,209,5.0,9.0,73,0.00,,,0.00,Wunderground v.1.15,2013-04-30 15:42:00,
2013-04-30 11:47:00,63.3,54.5,30.06,SSW,198,6.0,10.0,73,0.00,,,0.00,Wunderground v.1.15,2013-04-30 15:47:00,
2013-04-30 11:53:00,63.1,54.7,30.05,South,190,5.0,6.0,74,0.00,,,0.00,Wunderground v.1.15,2013-04-30 15:53:00,
2013-04-30 11:58:00,63.1,54.7,30.06,SE,144,3.0,6.0,74,0.00,,,0.00,Wunderground v.1.15,2013-04-30 15:58:00,
2013-04-30 12:04:00,63.0,54.9,30.06,SSE,147,2.0,3.0,75,0.00,,,0.00,Wunderground v.1.15,2013-04-30 16:04:00,
2013-04-30 12:10:00,63.1,54.7,30.06,SE,144,1.0,2.0,74,0.00,,,0.00,Wunderground v.1.15,2013-04-30 16:10:00,
2013-04-30 12:15:00,63.2,55.1,30.05,SE,124,2.0,4.0,75,0.00,,,0.00,Wunderground v.1.15,2013-04-30 16:15:00,
2013-04-30 12:20:00,63.0,55.3,30.06,ESE,121,2.0,2.0,76,0.00,,,0.00,Wunderground v.1.15,2013-04-30 16:20:00,
2013-04-30 12:26:00,62.7,55.7,30.06,ESE,121,2.0,3.0,78,0.00,,,0.00,Wunderground v.1.15,2013-04-30 16:26:00,
2013-04-30 12:31:00,62.3,55.7,30.06,ESE,123,2.0,3.0,79,0.00,,,0.01,Wunderground v.1.15,2013-04-30 16:31:00,
2013-04-30 12:37:00,62.0,55.8,30.05,SE,125,3.0,4.0,80,0.08,,,0.02,Wunderground v.1.15,2013-04-30 16:37:00,
2013-04-30 12:42:00,61.4,55.9,30.04,East,94,4.0,7.0,82,0.18,,,0.03,Wunderground v.1.15,2013-04-30 16:42:00,
2013-04-30 12:48:00,61.2,56.0,30.01,ESE,102,7.0,10.0,83,0.22,,,0.05,Wunderground v.1.15,2013-04-30 16:48:00,
2013-04-30 12:54:00,60.8,55.9,30.00,East,95,9.0,13.0,84,0.17,,,0.07,Wunderground v.1.15,2013-04-30 16:54:00,
2013-04-30 12:59:00,60.4,55.9,29.98,ESE,104,9.0,13.0,85,0.12,,,0.08,Wunderground v.1.15,2013-04-30 16:59:00,
2013-04-30 13:05:00,60.1,55.9,29.96,NE,53,11.0,17.0,86,0.11,,,0.09,Wunderground v.1.15,2013-04-30 17:05:00,
2013-04-30 13:10:00,60.0,55.8,29.95,ESE,104,11.0,17.0,86,0.09,,,0.10,Wunderground v.1.15,2013-04-30 17:10:00,
2013-04-30 13:15:00,60.0,55.8,29.95,SSE,149,11.0,11.0,86,0.07,,,0.10,Wunderground v.1.15,2013-04-30 17:15:00,
2013-04-30 13:21:00,60.0,55.8,29.97,SE,129,10.0,12.0,86,0.04,,,0.10,Wunderground v.1.15,2013-04-30 17:21:00,
2013-04-30 13:27:00,59.9,56.0,29.97,SE,130,8.0,12.0,87,0.00,,,0.10,Wunderground v.1.15,2013-04-30 17:27:00,
2013-04-30 13:33:00,60.1,56.2,29.97,SE,146,7.0,11.0,87,0.00,,,0.10,Wunderground v.1.15,2013-04-30 17:33:00,
2013-04-30 13:39:00,60.5,56.6,29.98,SSW,192,8.0,11.0,87,0.00,,,0.10,Wunderground v.1.15,2013-04-30 17:39:00,
2013-04-30 13:45:00,60.9,56.7,29.98,SSE,158,6.0,8.0,86,0.00,,,0.10,Wunderground v.1.15,2013-04-30 17:45:00,
2013-04-30 13:50:00,61.3,56.8,29.98,SSE,161,6.0,10.0,85,0.00,,,0.10,Wunderground v.1.15,2013-04-30 17:50:00,
2013-04-30 13:55:00,61.8,57.2,29.98,South,171,6.0,11.0,85,0.00,,,0.10,Wunderground v.1.15,2013-04-30 17:55:00,
2013-04-30 14:00:00,62.3,57.1,29.98,SSE,163,6.0,11.0,83,0.00,,,0.10,Wunderground v.1.15,2013-04-30 18:00:00,
2013-04-30 14:06:00,63.1,57.5,29.99,ESE,115,7.0,11.0,82,0.00,,,0.10,Wunderground v.1.15,2013-04-30 18:06:00,
2013-04-30 14:12:00,63.6,57.3,29.99,ESE,117,7.0,7.0,80,0.00,,,0.10,Wunderground v.1.15,2013-04-30 18:12:00,
2013-04-30 14:17:00,64.6,57.9,29.98,SSE,167,7.0,10.0,79,0.00,,,0.10,Wunderground v.1.15,2013-04-30 18:17:00,
2013-04-30 14:22:00,65.3,58.3,29.98,SE,136,6.0,15.0,78,0.00,,,0.10,Wunderground v.1.15,2013-04-30 18:22:00,
2013-04-30 14:27:00,65.7,58.3,29.98,SSE,160,7.0,15.0,77,0.00,,,0.10,Wunderground v.1.15,2013-04-30 18:27:00,
2013-04-30 14:33:00,65.8,57.3,29.98,SSE,157,9.0,9.0,74,0.00,,,0.10,Wunderground v.1.15,2013-04-30 18:33:00,
2013-04-30 14:38:00,66.0,57.5,29.98,East,94,9.0,13.0,74,0.00,,,0.10,Wunderground v.1.15,2013-04-30 18:38:00,
2013-04-30 14:44:00,66.9,58.0,29.98,SE,124,8.0,9.0,73,0.00,,,0.10,Wunderground v.1.15,2013-04-30 18:44:00,
2013-04-30 14:49:00,67.3,57.6,29.98,South,180,7.0,15.0,71,0.00,,,0.10,Wunderground v.1.15,2013-04-30 18:49:00,
2013-04-30 14:54:00,67.4,57.3,29.98,SSW,207,8.0,10.0,70,0.00,,,0.10,Wunderground v.1.15,2013-04-30 18:54:00,
2013-04-30 15:00:00,67.5,57.4,29.98,SE,142,9.0,9.0,70,0.00,,,0.10,Wunderground v.1.15,2013-04-30 19:00:00,
2013-04-30 15:06:00,68.2,57.2,29.97,East,92,8.0,10.0,68,0.00,,,0.10,Wunderground v.1.15,2013-04-30 19:06:00,
2013-04-30 15:12:00,68.0,56.6,29.98,SE,138,9.0,14.0,67,0.00,,,0.10,Wunderground v.1.15,2013-04-30 19:12:00,
2013-04-30 15:17:00,67.9,56.5,29.98,NE,54,12.0,17.0,67,0.00,,,0.10,Wunderground v.1.15,2013-04-30 19:17:00,
2013-04-30 15:22:00,68.4,57.0,29.97,ESE,111,9.0,13.0,67,0.00,,,0.10,Wunderground v.1.15,2013-04-30 19:22:00,
2013-04-30 15:28:00,68.7,56.9,29.98,South,179,8.0,13.0,66,0.00,,,0.10,Wunderground v.1.15,2013-04-30 19:28:00,
2013-04-30 15:33:00,68.5,57.1,29.98,ESE,117,8.0,12.0,67,0.00,,,0.10,Wunderground v.1.15,2013-04-30 19:33:00,
2013-04-30 15:38:00,68.6,57.2,29.97,SSE,167,8.0,14.0,67,0.00,,,0.10,Wunderground v.1.15,2013-04-30 19:38:00,
2013-04-30 15:44:00,68.4,56.6,29.97,East,97,8.0,10.0,66,0.00,,,0.10,Wunderground v.1.15,2013-04-30 19:44:00,
2013-04-30 15:49:00,68.4,56.6,29.97,East,101,9.0,14.0,66,0.00,,,0.10,Wunderground v.1.15,2013-04-30 19:49:00,
2013-04-30 15:54:00,68.3,56.1,29.97,SSE,154,10.0,15.0,65,0.00,,,0.10,Wunderground v.1.15,2013-04-30 19:54:00,
2013-04-30 15:59:00,68.7,57.3,29.97,East,85,9.0,15.0,67,0.00,,,0.10,Wunderground v.1.15,2013-04-30 19:59:00,
2013-04-30 16:05:00,69.0,57.2,29.97,East,86,7.0,9.0,66,0.00,,,0.10,Wunderground v.1.15,2013-04-30 20:05:00,
2013-04-30 16:10:00,69.4,56.3,29.96,SE,141,8.0,13.0,63,0.00,,,0.10,Wunderground v.1.15,2013-04-30 20:10:00,
2013-04-30 16:15:00,69.7,56.5,29.96,SSE,155,9.0,14.0,63,0.00,,,0.10,Wunderground v.1.15,2013-04-30 20:15:00,
2013-04-30 16:21:00,69.7,56.1,29.96,SSW,200,10.0,17.0,62,0.00,,,0.10,Wunderground v.1.15,2013-04-30 20:21:00,
2013-04-30 16:26:00,70.1,56.5,29.96,SE,128,10.0,17.0,62,0.00,,,0.10,Wunderground v.1.15,2013-04-30 20:26:00,
2013-04-30 16:32:00,70.5,56.9,29.96,ESE,117,9.0,9.0,62,0.00,,,0.10,Wunderground v.1.15,2013-04-30 20:32:00,
2013-04-30 16:37:00,71.1,57.0,29.96,SW,217,8.0,9.0,61,0.00,,,0.10,Wunderground v.1.15,2013-04-30 20:37:00,
2013-04-30 16:43:00,70.7,56.6,29.96,SSE,153,8.0,10.0,61,0.00,,,0.10,Wunderground v.1.15,2013-04-30 20:43:00,
2013-04-30 16:48:00,70.2,56.1,29.96,SSE,156,10.0,10.0,61,0.00,,,0.10,Wunderground v.1.15,2013-04-30 20:48:00,
2013-04-30 16:53:00,69.7,56.1,29.96,SE,136,9.0,10.0,62,0.00,,,0.10,Wunderground v.1.15,2013-04-30 20:53:00,
2013-04-30 16:59:00,69.9,56.7,29.97,ESE,107,8.0,10.0,63,0.00,,,0.10,Wunderground v.1.15,2013-04-30 20:59:00,
2013-04-30 17:04:00,69.6,56.0,29.97,SSE,165,8.0,13.0,62,0.00,,,0.10,Wunderground v.1.15,2013-04-30 21:04:00,
2013-04-30 17:09:00,69.4,56.3,29.96,SE,124,9.0,13.0,63,0.00,,,0.10,Wunderground v.1.15,2013-04-30 21:09:00,
2013-04-30 17:15:00,69.3,56.2,29.96,ESE,123,8.0,11.0,63,0.00,,,0.10,Wunderground v.1.15,2013-04-30 21:15:00,
2013-04-30 17:20:00,70.0,56.8,29.96,ESE,105,8.0,13.0,63,0.00,,,0.10,Wunderground v.1.15,2013-04-30 21:20:00,
2013-04-30 17:25:00,70.5,56.9,29.96,ESE,116,8.0,13.0,62,0.00,,,0.10,Wunderground v.1.15,2013-04-30 21:25:00,
2013-04-30 17:31:00,70.7,56.6,29.96,SE,139,8.0,13.0,61,0.00,,,0.10,Wunderground v.1.15,2013-04-30 21:31:00,
2013-04-30 17:36:00,71.1,57.0,29.97,SSE,161,8.0,15.0,61,0.00,,,0.10,Wunderground v.1.15,2013-04-30 21:36:00,
2013-04-30 17:42:00,70.7,56.6,29.96,SSE,167,9.0,13.0,61,0.00,,,0.10,Wunderground v.1.15,2013-04-30 21:42:00,
2013-04-30 17:48:00,70.7,56.6,29.97,SSE,164,10.0,17.0,61,0.00,,,0.10,Wunderground v.1.15,2013-04-30 21:48:00,
2013-04-30 17:53:00,70.7,56.1,29.97,SSW,197,9.0,16.0,60,0.00,,,0.10,Wunderground v.1.15,2013-04-30 21:53:00,
2013-04-30 17:59:00,70.8,56.7,29.97,SE,143,9.0,16.0,61,0.00,,,0.10,Wunderground v.1.15,2013-04-30 21:59:00,
2013-04-30 18:04:00,71.3,56.7,29.97,SSW,194,7.0,11.0,60,0.00,,,0.10,Wunderground v.1.15,2013-04-30 22:04:00,
2013-04-30 18:09:00,71.5,56.9,29.97,East,91,6.0,11.0,60,0.00,,,0.10,Wunderground v.1.15,2013-04-30 22:09:00,
2013-04-30 18:14:00,71.2,56.6,29.97,WSW,245,6.0,6.0,60,0.00,,,0.10,Wunderground v.1.15,2013-04-30 22:14:00,
2013-04-30 18:20:00,70.8,56.2,29.97,SSE,159,9.0,9.0,60,0.00,,,0.10,Wunderground v.1.15,2013-04-30 22:20:00,
2013-04-30 18:25:00,70.9,56.3,29.97,SE,144,9.0,13.0,60,0.00,,,0.10,Wunderground v.1.15,2013-04-30 22:25:00,
2013-04-30 18:30:00,70.8,56.2,29.97,SE,131,8.0,9.0,60,0.00,,,0.10,Wunderground v.1.15,2013-04-30 22:30:00,
2013-04-30 18:36:00,70.7,56.6,29.97,ESE,111,8.0,9.0,61,0.00,,,0.10,Wunderground v.1.15,2013-04-30 22:36:00,
2013-04-30 18:41:00,70.8,56.2,29.97,ENE,74,8.0,8.0,60,0.00,,,0.10,Wunderground v.1.15,2013-04-30 22:41:00,
2013-04-30 18:47:00,70.5,56.4,29.97,South,177,8.0,10.0,61,0.00,,,0.10,Wunderground v.1.15,2013-04-30 22:47:00,
2013-04-30 18:52:00,70.6,56.5,29.97,ENE,58,8.0,8.0,61,0.00,,,0.10,Wunderground v.1.15,2013-04-30 22:52:00,
2013-04-30 18:57:00,70.5,56.4,29.97,East,88,7.0,8.0,61,0.00,,,0.10,Wunderground v.1.15,2013-04-30 22:57:00,
2013-04-30 19:03:00,70.3,56.2,29.97,SSE,167,7.0,13.0,61,0.00,,,0.10,Wunderground v.1.15,2013-04-30 23:03:00,
2013-04-30 19:09:00,70.2,56.1,29.97,ESE,123,8.0,13.0,61,0.00,,,0.10,Wunderground v.1.15,2013-04-30 23:09:00,
2013-04-30 19:14:00,70.1,56.0,29.97,SE,138,7.0,9.0,61,0.00,,,0.10,Wunderground v.1.15,2013-04-30 23:14:00,
2013-04-30 19:19:00,70.0,55.9,29.97,SE,136,6.0,9.0,61,0.00,,,0.10,Wunderground v.1.15,2013-04-30 23:19:00,
2013-04-30 19:24:00,69.8,55.7,29.98,SSE,153,5.0,9.0,61,0.00,,,0.10,Wunderground v.1.15,2013-04-30 23:24:00,
2013-04-30 19:30:00,69.6,56.0,29.98,SE,138,6.0,10.0,62,0.00,,,0.10,Wunderground v.1.15,2013-04-30 23:30:00,
2013-04-30 19:35:00,69.5,55.9,29.98,SSE,160,6.0,8.0,62,0.00,,,0.10,Wunderground v.1.15,2013-04-30 23:35:00,
2013-04-30 19:40:00,69.4,55.8,29.98,SSE,157,5.0,8.0,62,0.00,,,0.10,Wunderground v.1.15,2013-04-30 23:40:00,
2013-04-30 19:46:00,69.2,56.1,29.98,SSE,155,5.0,8.0,63,0.00,,,0.10,Wunderground v.1.15,2013-04-30 23:46:00,
2013-04-30 19:51:00,69.0,55.9,29.98,SE,141,5.0,5.0,63,0.00,,,0.10,Wunderground v.1.15,2013-04-30 23:51:00,
2013-04-30 19:56:00,68.7,56.0,29.98,SE,134,4.0,6.0,64,0.00,,,0.10,Wunderground v.1.15,2013-04-30 23:56:00,
2013-04-30 20:02:00,68.4,55.7,29.98,SE,140,4.0,6.0,64,0.00,,,0.10,Wunderground v.1.15,2013-05-01 00:02:00,
2013-04-30 20:07:00,68.1,55.9,29.98,SE,125,4.0,6.0,65,0.00,,,0.10,Wunderground v.1.15,2013-05-01 00:07:00,
2013-04-30 20:12:00,67.8,55.6,29.99,SSE,150,5.0,5.0,65,0.00,,,0.10,Wunderground v.1.15,2013-05-01 00:12:00,
2013-04-30 20:17:00,67.5,55.7,29.99,SSE,150,5.0,6.0,66,0.00,,,0.10,Wunderground v.1.15,2013-05-01 00:17:00,
2013-04-30 20:23:00,67.2,55.9,29.99,SE,144,4.0,5.0,67,0.00,,,0.10,Wunderground v.1.15,2013-05-01 00:23:00,
2013-04-30 20:28:00,66.8,55.5,29.99,SE,132,4.0,6.0,67,0.00,,,0.10,Wunderground v.1.15,2013-05-01 00:28:00,
2013-04-30 20:33:00,66.5,55.6,29.99,SE,139,4.0,5.0,68,0.00,,,0.10,Wunderground v.1.15,2013-05-01 00:33:00,
2013-04-30 20:39:00,66.1,55.2,29.99,SE,134,4.0,8.0,68,0.00,,,0.10,Wunderground v.1.15,2013-05-01 00:39:00,
2013-04-30 20:45:00,65.9,55.0,30.00,SE,139,5.0,7.0,68,0.00,,,0.10,Wunderground v.1.15,2013-05-01 00:45:00,
2013-04-30 20:50:00,65.7,55.2,30.00,SE,138,4.0,6.0,69,0.00,,,0.10,Wunderground v.1.15,2013-05-01 00:50:00,
2013-04-30 20:55:00,65.4,55.0,30.00,SE,139,4.0,6.0,69,0.00,,,0.10,Wunderground v.1.15,2013-05-01 00:55:00,
2013-04-30 21:00:00,65.1,55.1,30.00,SE,144,3.0,3.0,70,0.00,,,0.10,Wunderground v.1.15,2013-05-01 01:00:00,
2013-04-30 21:06:00,64.9,54.9,30.01,SE,145,2.0,4.0,70,0.00,,,0.10,Wunderground v.1.15,2013-05-01 01:06:00,
2013-04-30 21:12:00,64.7,55.1,30.01,SE,146,2.0,3.0,71,0.00,,,0.10,Wunderground v.1.15,2013-05-01 01:12:00,
2013-04-30 21:17:00,64.5,54.9,30.01,SE,146,3.0,3.0,71,0.00,,,0.10,Wunderground v.1.15,2013-05-01 01:17:00,
2013-04-30 21:22:00,64.3,54.7,30.02,SSE,152,2.0,5.0,71,0.00,,,0.10,Wunderground v.1.15,2013-05-01 01:22:00,
2013-04-30 21:27:00,64.1,54.9,30.02,SSE,151,2.0,5.0,72,0.00,,,0.10,Wunderground v.1.15,2013-05-01 01:27:00,
2013-04-30 21:33:00,63.9,54.7,30.02,SSE,151,2.0,3.0,72,0.00,,,0.10,Wunderground v.1.15,2013-05-01 01:33:00,
2013-04-30 21:38:00,63.7,54.5,30.02,SSE,151,2.0,4.0,72,0.00,,,0.10,Wunderground v.1.15,2013-05-01 01:38:00,
2013-04-30 21:44:00,63.4,55.0,30.02,SSE,151,2.0,2.0,74,0.00,,,0.10,Wunderground v.1.15,2013-05-01 01:44:00,
2013-04-30 21:49:00,63.2,54.8,30.02,SSE,151,2.0,3.0,74,0.00,,,0.10,Wunderground v.1.15,2013-05-01 01:49:00,
2013-04-30 21:54:00,63.0,54.6,30.02,SSE,151,2.0,2.0,74,0.00,,,0.10,Wunderground v.1.15,2013-05-01 01:54:00,
2013-04-30 21:59:00,63.0,54.6,30.03,SSE,151,2.0,2.0,74,0.00,,,0.10,Wunderground v.1.15,2013-05-01 01:59:00,
2013-04-30 22:04:00,-999.9,-99.9,30.03,North,32767,-999.0,2.0,255,-99.99,,,0.10,Wunderground v.1.15,2013-05-01 02:04:00,
2013-04-30 22:10:00,-999.9,-99.9,30.03,North,32767,-999.0,2.0,255,-99.99,,,0.10,Wunderground v.1.15,2013-05-01 02:10:00,
2013-04-30 22:15:00,-999.9,-99.9,30.03,North,32767,-999.0,0.0,255,-99.99,,,0.10,Wunderground v.1.15,2013-05-01 02:15:00,
2013-04-30 22:20:00,-999.9,-99.9,30.03,North,32767,-999.0,0.0,255,-99.99,,,0.10,Wunderground v.1.15,2013-05-01 02:20:00,
2013-04-30 22:25:00,-999.9,-99.9,30.03,North,32767,-999.0,0.0,255,-99.99,,,0.10,Wunderground v.1.15,2013-05-01 02:25:00,
2013-04-30 22:31:00,-999.9,-99.9,30.03,North,32767,-999.0,0.0,255,-99.99,,,0.10,Wunderground v.1.15,2013-05-01 02:31:00,
2013-04-30 22:37:00,-999.9,-99.9,30.03,SSE,151,2.0,2.0,255,0.00,,,0.10,Wunderground v.1.15,2013-05-01 02:37:00,
2013-04-30 22:42:00,61.3,54.7,30.04,SSE,151,4.0,4.0,79,0.00,,,0.10,Wunderground v.1.15,2013-05-01 02:42:00,
2013-04-30 22:47:00,61.3,54.7,30.04,SSE,151,2.0,4.0,79,0.00,,,0.10,Wunderground v.1.15,2013-05-01 02:47:00,
2013-04-30 22:53:00,60.9,54.3,30.03,SSE,151,2.0,2.0,79,0.00,,,0.10,Wunderground v.1.15,2013-05-01 02:53:00,
2013-04-30 22:58:00,60.7,54.5,30.03,SSE,151,1.0,2.0,80,0.00,,,0.10,Wunderground v.1.15,2013-05-01 02:58:00,
2013-04-30 23:03:00,60.4,54.2,30.04,SSE,151,0.0,1.0,80,0.00,,,0.10,Wunderground v.1.15,2013-05-01 03:03:00,
2013-04-30 23:09:00,60.3,54.4,30.04,SSE,151,0.0,3.0,81,0.00,,,0.10,Wunderground v.1.15,2013-05-01 03:09:00,
2013-04-30 23:14:00,60.1,54.2,30.04,SSE,151,1.0,2.0,81,0.00,,,0.10,Wunderground v.1.15,2013-05-01 03:14:00,
2013-04-30 23:19:00,60.0,54.5,30.04,SSE,151,1.0,2.0,82,0.00,,,0.10,Wunderground v.1.15,2013-05-01 03:19:00,
2013-04-30 23:24:00,59.8,54.3,30.04,SSE,151,1.0,2.0,82,0.00,,,0.10,Wunderground v.1.15,2013-05-01 03:24:00,
2013-04-30 23:30:00,59.6,54.4,30.04,SSE,151,1.0,1.0,83,0.00,,,0.10,Wunderground v.1.15,2013-05-01 03:30:00,
2013-04-30 23:35:00,59.4,54.2,30.04,SSE,151,1.0,1.0,83,0.00,,,0.10,Wunderground v.1.15,2013-05-01 03:35:00,
2013-04-30 23:40:00,59.4,54.2,30.04,SSE,151,1.0,1.0,83,0.00,,,0.10,Wunderground v.1.15,2013-05-01 03:40:00,
2013-04-30 23:45:00,59.3,54.1,30.04,SSE,151,2.0,2.0,83,0.00,,,0.10,Wunderground v.1.15,2013-05-01 03:45:00,
2013-04-30 23:50:00,59.3,54.1,30.04,SSE,151,2.0,2.0,83,0.00,,,0.10,Wunderground v.1.15,2013-05-01 03:50:00,
2013-04-30 23:56:00,59.3,54.1,30.04,SSE,151,2.0,3.0,83,0.00,,,0.00,Wunderground v.1.15,2013-05-01 03:56:00,